Weather History for PAOM - September, 2014

Change the Weather History Date:

Monday, September 22, 2014

  Actual Average Record
Temperature  
Mean Temperature 42 °F 40 °F  
Max Temperature 48 °F 46 °F 59 °F (1929)
Min Temperature 35 °F 34 °F 20 °F (1992)
Degree Days  
Heating Degree Days 23 25  
Month to date heating degree days 378 450  
Since 1 July heating degree days 1081 1314  
Cooling Degree Days 0    
Month to date cooling degree days 0  
Year to date cooling degree days 3  
Moisture  
Dew Point 42 °F    
Average Humidity 0    
Maximum Humidity 0    
Minimum Humidity 0    
Precipitation  
Precipitation 0.07 in 0.07 in 0.72 in (1934)
Month to date precipitation 2.41 1.88  
Year to date precipitation 11.43 12.33  
Snow  
Snow 0.00 in 0.10 in 0.40 in (2004)
Month to date snowfall 0.0 0.3  
Since 1 July snowfall 0.0 0.3  
Since 1 September snowfall 0.0 0.3  
Snow Depth 0.00 in    
Sea Level Pressure  
Sea Level Pressure 29.71 in    
Wind  
Wind Speed 14 mph (WSW)    
Max Wind Speed 25 mph    
Max Gust Speed 30 mph    
Visibility 9 miles    
Events Rain    
T = Trace of Precipitation, MM = Missing Value Source: NWS Daily Summary

Daily Weather History Graph

Daily Weather History Graph

Search for Another Location

Airport or City:

Trip Planner

Search our weather history database for the weather conditions in past years. The results will help you decide how hot, cold, wet, or windy it might be!

Date:

Astronomy

Sep. 22, 2014 Rise Set
Actual Time 8:45 AM AKDT 9:01 PM AKDT
Civil Twilight 7:56 AM AKDT 9:50 PM AKDT
Nautical Twilight 6:57 AM AKDT 10:49 PM AKDT
Astronomical Twilight 5:48 AM AKDT 11:56 PM AKDT
Moon 7:07 AM AKDT (9/22) 8:23 PM AKDT (9/22)
Length of Visible Light 13h 53m
Length of Day
12h 16m
Waning Crescent, 2% of the Moon is Illuminated
Sep 22
Waning Crescent
Sep 23
New
Oct 1
First Quarter
Oct 8
Full
Oct 15
Last Quarter

Hourly Weather History & Observations

Time (AKDT) Temp. Windchill Dew Point Humidity Pressure Visibility Wind Dir Wind Speed Gust Speed Precip Events Conditions
12:53 AM 46.0 °F 39.9 °F 42.1 °F 86% 29.73 in 10.0 mi SW 13.8 mph - N/A   Overcast
1:38 AM 46.0 °F 39.6 °F 44.1 °F 93% 29.72 in 6.0 mi SW 15.0 mph - 0.00 in   Overcast
1:53 AM 46.0 °F 38.8 °F 44.1 °F 93% 29.72 in 10.0 mi SW 18.4 mph - 0.00 in   Overcast
2:51 AM 46.4 °F 39.2 °F 44.6 °F 93% 29.71 in 10.0 mi WSW 18.4 mph - 0.00 in   Overcast
2:53 AM 46.0 °F 39.3 °F 44.1 °F 93% 29.71 in 10.0 mi WSW 16.1 mph - 0.01 in Rain Light Rain
3:40 AM 46.0 °F 38.3 °F 44.1 °F 93% 29.71 in 10.0 mi WSW 20.7 mph - 0.00 in Rain Light Rain
3:51 AM 46.4 °F 39.0 °F 44.6 °F 93% 29.70 in 9.0 mi WSW 19.6 mph - 0.00 in Rain Light Rain
3:53 AM 46.0 °F 38.5 °F 44.1 °F 93% 29.71 in 9.0 mi WSW 19.6 mph - 0.00 in Rain Light Rain
4:53 AM 46.0 °F 37.8 °F 44.1 °F 93% 29.70 in 10.0 mi WSW 23.0 mph - 0.00 in   Overcast
5:12 AM 46.0 °F 38.8 °F 44.1 °F 93% 29.69 in 9.0 mi WSW 18.4 mph - 0.00 in Rain Light Rain
5:53 AM 46.0 °F 37.8 °F 43.0 °F 89% 29.70 in 10.0 mi WSW 23.0 mph - 0.00 in   Overcast
6:53 AM 46.9 °F - 43.0 °F 86% 29.69 in 10.0 mi WSW 20.7 mph - 0.00 in Rain Light Rain
7:53 AM 46.9 °F - 42.1 °F 83% 29.69 in 10.0 mi WSW 23.0 mph - 0.00 in   Overcast
8:53 AM 46.9 °F - 42.1 °F 83% 29.68 in 10.0 mi SW 21.9 mph - 0.00 in   Overcast
9:04 AM 46.9 °F - 43.0 °F 86% 29.67 in 10.0 mi SW 19.6 mph - 0.00 in Rain Light Rain
9:11 AM 46.9 °F - 42.1 °F 83% 29.67 in 10.0 mi WSW 21.9 mph - 0.00 in Rain Light Rain
9:18 AM 46.9 °F - 42.1 °F 83% 29.67 in 10.0 mi WSW 21.9 mph - 0.00 in Rain Light Rain
9:57 AM 46.9 °F - 42.1 °F 83% - 10.0 mi WSW 21.9 mph - 0.00 in   Overcast
10:53 AM 46.9 °F - 44.1 °F 90% - 10.0 mi SW 21.9 mph - 0.00 in   Overcast
11:00 AM 46.9 °F - 44.1 °F 90% - 10.0 mi SW 19.6 mph - N/A   Overcast
11:18 AM 46.9 °F - 44.1 °F 90% - 10.0 mi SW 20.7 mph - N/A   Overcast
11:51 AM 48.2 °F - 44.6 °F 87% - 8.0 mi WSW 23.0 mph - N/A   Overcast
11:53 AM 48.0 °F - 44.1 °F 86% - 8.0 mi SW 21.9 mph - N/A   Overcast
12:30 PM 48.0 °F - 44.1 °F 86% - 7.0 mi WSW 19.6 mph - N/A   Overcast
12:53 PM 46.9 °F - 44.1 °F 90% - 8.0 mi WSW 19.6 mph - 0.00 in   Overcast
1:04 PM 46.9 °F - 44.1 °F 90% - 6.0 mi WSW 23.0 mph - N/A   Overcast
1:53 PM 48.0 °F - 44.1 °F 86% - 10.0 mi WSW 21.9 mph - 0.00 in Rain Light Rain
2:12 PM 48.0 °F - 44.1 °F 86% - 10.0 mi WSW 18.4 mph - 0.00 in Rain Light Rain
2:51 PM 46.4 °F 38.5 °F 44.6 °F 93% - 4.0 mi WSW 21.9 mph - 0.00 in Rain Light Rain
2:53 PM 46.9 °F - 45.0 °F 93% - 4.0 mi WSW 18.4 mph - 0.00 in Rain Light Rain
3:01 PM 46.9 °F - 45.0 °F 93% - 6.0 mi WSW 20.7 mph - 0.00 in Rain Light Rain
3:09 PM 46.9 °F - 45.0 °F 93% - 4.0 mi West 16.1 mph 26.5 mph 0.00 in Rain Light Rain
3:25 PM 45.0 °F 39.3 °F 43.0 °F 93% - 10.0 mi WNW 11.5 mph - 0.01 in   Overcast
3:39 PM 44.1 °F 38.6 °F 42.1 °F 93% - 6.0 mi WNW 10.4 mph - 0.01 in Rain Light Rain
3:53 PM 44.1 °F 38.1 °F 41.0 °F 89% - 7.0 mi NW 11.5 mph - 0.01 in Rain Light Rain
4:20 PM 44.1 °F 39.5 °F 41.0 °F 89% - 9.0 mi NW 8.1 mph - 0.01 in Rain Light Rain
4:36 PM 44.1 °F 39.5 °F 41.0 °F 89% - 9.0 mi WNW 8.1 mph - 0.01 in Rain Light Rain
4:53 PM 43.0 °F 36.8 °F 39.0 °F 86% - 10.0 mi NW 11.5 mph - 0.02 in Rain Light Rain
5:53 PM 42.1 °F 35.7 °F 39.0 °F 89% - 10.0 mi West 11.5 mph - 0.02 in Rain Light Rain
6:20 PM 42.1 °F 37.1 °F 39.0 °F 89% 29.70 in 10.0 mi WNW 8.1 mph - 0.01 in Rain Light Rain
6:53 PM 42.1 °F 37.1 °F 39.0 °F 89% 29.71 in 10.0 mi NW 8.1 mph - 0.01 in   Overcast
7:53 PM 41.0 °F 36.4 °F 39.0 °F 93% 29.71 in 10.0 mi WNW 6.9 mph - 0.00 in   Overcast
8:53 PM 41.0 °F 39.0 °F 39.0 °F 93% 29.73 in 10.0 mi WNW 3.5 mph - N/A   Overcast
9:53 PM 39.9 °F 34.5 °F 37.0 °F 89% 29.74 in 10.0 mi North 8.1 mph - N/A   Mostly Cloudy
10:53 PM 37.9 °F 30.9 °F 33.1 °F 83% 29.75 in 10.0 mi North 10.4 mph - N/A   Mostly Cloudy
11:53 PM 37.0 °F - 30.9 °F 79% 29.77 in 10.0 mi Calm Calm - N/A   Mostly Cloudy